| time (UTC) | temp F | wind direction | speed knots | gust knots | rain 1hr in | rain 24hr in | rain mn in | humidity % | barometer mb |
| 20260507030218 | 67 | 223 | 4.3 | 8.7 | 0.00 | 0.00 | 0.00 | 61 | 1016.4 |
| 20260507025716 | 68 | 223 | 4.3 | 8.7 | 0.00 | 0.00 | 0.00 | 60 | 1016.3 |
| 20260507025216 | 68 | 223 | 5.2 | 8.7 | 0.00 | 0.00 | 0.00 | 60 | 1016.3 |
| 20260507024717 | 68 | 229 | 4.3 | 8.7 | 0.00 | 0.00 | 0.00 | 59 | 1016.2 |
| 20260507024217 | 69 | 223 | 4.3 | 8.7 | 0.00 | 0.00 | 0.00 | 59 | 1016.2 |
| 20260507023717 | 69 | 219 | 4.3 | 7.8 | 0.00 | 0.00 | 0.00 | 58 | 1016.1 |
| 20260507023216 | 69 | 199 | 4.3 | 7.8 | 0.00 | 0.00 | 0.00 | 57 | 1016.1 |
| 20260507022716 | 70 | 232 | 5.2 | 8.7 | 0.00 | 0.00 | 0.00 | 57 | 1015.9 |
| 20260507022229 | 70 | 223 | 5.2 | 8.7 | 0.00 | 0.00 | 0.00 | 56 | 1015.9 |
| 20260507021714 | 71 | 211 | 5.2 | 9.6 | 0.00 | 0.00 | 0.00 | 56 | 1015.9 |
| 20260507021227 | 71 | 220 | 5.2 | 9.6 | 0.00 | 0.00 | 0.00 | 55 | 1015.9 |
| 20260507020945 | 71 | 221 | 5.2 | 10.4 | 0.00 | 0.00 | 0.00 | 55 | 1015.9 |
| 20260507020211 | 71 | 220 | 5.2 | 10.4 | 0.00 | 0.00 | 0.00 | 53 | 1015.7 |
| 20260507015710 | 72 | 225 | 5.2 | 10.4 | 0.00 | 0.00 | 0.00 | 54 | 1015.8 |
| 20260507015211 | 72 | 213 | 5.2 | 10.4 | 0.00 | 0.00 | 0.00 | 53 | 1015.8 |
| 20260507014708 | 72 | 212 | 6.1 | 9.6 | 0.00 | 0.00 | 0.00 | 52 | 1015.7 |
| 20260507014207 | 72 | 223 | 7.0 | 10.4 | 0.00 | 0.00 | 0.00 | 51 | 1015.6 |
| 20260507013709 | 73 | 228 | 6.1 | 10.4 | 0.00 | 0.00 | 0.00 | 51 | 1015.6 |
| 20260507013207 | 73 | 218 | 5.2 | 10.4 | 0.00 | 0.00 | 0.00 | 50 | 1015.6 |
| 20260507012709 | 74 | 213 | 5.2 | 9.6 | 0.00 | 0.00 | 0.00 | 49 | 1015.5 |
| 20260507012209 | 74 | 244 | 5.2 | 9.6 | 0.00 | 0.00 | 0.00 | 49 | 1015.4 |
| 20260507011707 | 75 | 230 | 4.3 | 8.7 | 0.00 | 0.00 | 0.00 | 49 | 1015.4 |
| 20260507011438 | 75 | 227 | 5.2 | 11.3 | 0.00 | 0.00 | 0.00 | 49 | 1015.4 |
| 20260507010719 | 75 | 236 | 6.1 | 13.0 | 0.00 | 0.00 | 0.00 | 50 | 1015.3 |
| 20260507010203 | 75 | 264 | 6.1 | 13.0 | 0.00 | 0.00 | 0.00 | 49 | 1015.3 |
| 20260507005701 | 75 | 241 | 7.0 | 13.9 | 0.00 | 0.00 | 0.00 | 49 | 1015.2 |
| 20260507005202 | 75 | 223 | 7.0 | 13.9 | 0.00 | 0.00 | 0.00 | 47 | 1015.2 |
| 20260507004701 | 76 | 217 | 6.1 | 11.3 | 0.00 | 0.00 | 0.00 | 47 | 1015.2 |
| 20260507004201 | 76 | 264 | 6.1 | 11.3 | 0.00 | 0.00 | 0.00 | 48 | 1015.1 |
| 20260507003703 | 76 | 229 | 6.1 | 11.3 | 0.00 | 0.00 | 0.00 | 48 | 1015.1 |
| 20260507003203 | 76 | 215 | 7.0 | 13.0 | 0.00 | 0.00 | 0.00 | 48 | 1015.1 |
| 20260507002700 | 76 | 266 | 7.0 | 13.0 | 0.00 | 0.00 | 0.00 | 48 | 1015.1 |
| 20260507002200 | 76 | 219 | 6.1 | 12.2 | 0.00 | 0.00 | 0.00 | 47 | 1015.1 |
| 20260507001701 | 77 | 219 | 6.1 | 10.4 | 0.00 | 0.00 | 0.00 | 46 | 1015.1 |
| 20260507001200 | 77 | 221 | 6.1 | 10.4 | 0.00 | 0.00 | 0.00 | 45 | 1015.0 |
| 20260507000700 | 77 | 227 | 6.1 | 12.2 | 0.00 | 0.00 | 0.00 | 46 | 1015.1 |
| 20260507000156 | 77 | 222 | 6.1 | 12.2 | 0.00 | 0.00 | 0.00 | 47 | 1015.0 |
| 20260506235657 | 77 | 204 | 7.0 | 13.0 | 0.00 | 0.00 | 0.00 | 46 | 1014.9 |
| 20260506235154 | 77 | 240 | 7.0 | 13.0 | 0.00 | 0.00 | 0.00 | 46 | 1014.9 |
| 20260506234655 | 77 | 215 | 7.0 | 13.9 | 0.00 | 0.00 | 0.00 | 46 | 1014.9 |
| 20260506234148 | 77 | 227 | 7.8 | 13.9 | 0.00 | 0.00 | 0.00 | 46 | 1014.9 |
| 20260506233648 | 78 | 219 | 7.8 | 13.9 | 0.00 | 0.00 | 0.00 | 45 | 1014.9 |
| 20260506233148 | 78 | 240 | 7.0 | 13.9 | 0.00 | 0.00 | 0.00 | 45 | 1014.8 |
| 20260506232648 | 79 | 219 | 6.1 | 12.2 | 0.00 | 0.00 | 0.00 | 43 | 1014.9 |
| 20260506232149 | 79 | 219 | 5.2 | 11.3 | 0.00 | 0.00 | 0.00 | 43 | 1015.0 |
| 20260506231648 | 80 | 242 | 5.2 | 11.3 | 0.00 | 0.00 | 0.00 | 43 | 1015.0 |
| 20260506231147 | 79 | 267 | 4.3 | 10.4 | 0.00 | 0.00 | 0.00 | 43 | 1014.9 |
| 20260506230916 | 78 | 256 | 5.2 | 10.4 | 0.00 | 0.00 | 0.00 | 43 | 1015.1 |
| 20260506230414 | 79 | 230 | 6.1 | 10.4 | 0.00 | 0.00 | 0.00 | 41 | 1015.2 |
| 20260506225643 | 79 | 232 | 5.2 | 9.6 | 0.00 | 0.00 | 0.00 | 43 | 1015.1 |
| 20260506225414 | 78 | 221 | 5.2 | 10.4 | 0.00 | 0.00 | 0.00 | 41 | 1015.2 |
| 20260506224639 | 79 | 221 | 6.1 | 11.3 | 0.00 | 0.00 | 0.00 | 40 | 1015.2 |
| 20260506224138 | 79 | 211 | 6.1 | 11.3 | 0.00 | 0.00 | 0.00 | 41 | 1015.3 |
| 20260506223638 | 79 | 232 | 6.1 | 11.3 | 0.00 | 0.00 | 0.00 | 41 | 1015.3 |
| 20260506223138 | 79 | 225 | 5.2 | 11.3 | 0.00 | 0.00 | 0.00 | 40 | 1015.4 |
| 20260506222638 | 79 | 265 | 5.2 | 10.4 | 0.00 | 0.00 | 0.00 | 41 | 1015.5 |
| 20260506222139 | 79 | 230 | 5.2 | 10.4 | 0.00 | 0.00 | 0.00 | 41 | 1015.5 |
| 20260506221638 | 79 | 248 | 5.2 | 10.4 | 0.00 | 0.00 | 0.00 | 41 | 1015.6 |
| 20260506221408 | 79 | 227 | 4.3 | 11.3 | 0.00 | 0.00 | 0.00 | 41 | 1015.6 |
| 20260506220635 | 79 | 227 | 4.3 | 11.3 | 0.00 | 0.00 | 0.00 | 41 | 1015.7 |
| 20260506220132 | 79 | 239 | 4.3 | 10.4 | 0.00 | 0.00 | 0.00 | 41 | 1015.8 |
| 20260506215906 | 78 | 271 | 4.3 | 9.6 | 0.00 | 0.00 | 0.00 | 42 | 1015.9 |
| 20260506215131 | 78 | 233 | 4.3 | 9.6 | 0.00 | 0.00 | 0.00 | 43 | 1016.0 |
| 20260506214631 | 78 | 208 | 4.3 | 9.6 | 0.00 | 0.00 | 0.00 | 42 | 1015.9 |
| 20260506214129 | 78 | 242 | 4.3 | 8.7 | 0.00 | 0.00 | 0.00 | 43 | 1016.0 |
| 20260506213629 | 78 | 252 | 4.3 | 10.4 | 0.00 | 0.00 | 0.00 | 43 | 1016.1 |
| 20260506213128 | 78 | 223 | 4.3 | 10.4 | 0.00 | 0.00 | 0.00 | 42 | 1016.2 |
| 20260506212629 | 78 | 237 | 3.5 | 9.6 | 0.00 | 0.00 | 0.00 | 43 | 1016.2 |
| 20260506212126 | 78 | 242 | 2.6 | 6.1 | 0.00 | 0.00 | 0.00 | 43 | 1016.2 |
| 20260506211626 | 78 | 254 | 3.5 | 10.4 | 0.00 | 0.00 | 0.00 | 44 | 1016.3 |
| 20260506211122 | 78 | 254 | 4.3 | 10.4 | 0.00 | 0.00 | 0.00 | 43 | 1016.5 |
| 20260506210620 | 77 | 268 | 3.5 | 8.7 | 0.00 | 0.00 | 0.00 | 44 | 1016.5 |
| 20260506210122 | 77 | 205 | 3.5 | 7.0 | 0.00 | 0.00 | 0.00 | 43 | 1016.5 |
| 20260506205621 | 77 | 258 | 3.5 | 7.0 | 0.00 | 0.00 | 0.00 | 43 | 1016.6 |
| 20260506205117 | 77 | 252 | 4.3 | 7.8 | 0.00 | 0.00 | 0.00 | 42 | 1016.8 |
| 20260506204849 | 77 | 265 | 2.6 | 7.8 | 0.00 | 0.00 | 0.00 | 42 | 1016.8 |
| 20260506204117 | 76 | 257 | 1.7 | 7.0 | 0.00 | 0.00 | 0.00 | 43 | 1016.9 |
| 20260506203614 | 76 | 240 | 2.6 | 5.2 | 0.00 | 0.00 | 0.00 | 43 | 1016.9 |
| 20260506203347 | 76 | 240 | 2.6 | 7.0 | 0.00 | 0.00 | 0.00 | 43 | 1017.0 |
| 20260506202613 | 75 | 221 | 2.6 | 7.0 | 0.00 | 0.00 | 0.00 | 44 | 1017.1 |
| 20260506202345 | 75 | 245 | 3.5 | 8.7 | 0.00 | 0.00 | 0.00 | 43 | 1017.1 |
| 20260506201613 | 75 | 225 | 2.6 | 8.7 | 0.00 | 0.00 | 0.00 | 43 | 1017.2 |
| 20260506201111 | 74 | 206 | 2.6 | 6.1 | 0.00 | 0.00 | 0.00 | 44 | 1017.3 |
| 20260506200842 | 74 | 204 | 2.6 | 7.0 | 0.00 | 0.00 | 0.00 | 43 | 1017.4 |
| 20260506200110 | 74 | 203 | 2.6 | 7.0 | 0.00 | 0.00 | 0.00 | 44 | 1017.4 |
| 20260506195614 | 74 | 222 | 2.6 | 6.1 | 0.00 | 0.00 | 0.00 | 45 | 1017.6 |
| 20260506195108 | 74 | 212 | 1.7 | 6.1 | 0.00 | 0.00 | 0.00 | 44 | 1017.6 |
| 20260506194608 | 74 | 205 | 1.7 | 6.1 | 0.00 | 0.00 | 0.00 | 43 | 1017.7 |
| 20260506194109 | 74 | 211 | 1.7 | 3.5 | 0.00 | 0.00 | 0.00 | 44 | 1017.8 |
| 20260506193608 | 73 | 211 | 0.9 | 3.5 | 0.00 | 0.00 | 0.00 | 44 | 1017.9 |
| 20260506193110 | 73 | 211 | 1.7 | 5.2 | 0.00 | 0.00 | 0.00 | 45 | 1017.9 |
| 20260506192607 | 72 | 211 | 1.7 | 5.2 | 0.00 | 0.00 | 0.00 | 46 | 1018.0 |
| 20260506192107 | 71 | 205 | 1.7 | 5.2 | 0.00 | 0.00 | 0.00 | 47 | 1018.0 |
| 20260506191605 | 71 | 203 | 1.7 | 5.2 | 0.00 | 0.00 | 0.00 | 45 | 1018.1 |
| 20260506191103 | 71 | 201 | 0.9 | 5.2 | 0.00 | 0.00 | 0.00 | 46 | 1018.1 |
| 20260506190604 | 71 | 201 | 1.7 | 3.5 | 0.00 | 0.00 | 0.00 | 46 | 1018.3 |
| 20260506190103 | 70 | 201 | 2.6 | 6.1 | 0.00 | 0.00 | 0.00 | 47 | 1018.3 |
| 20260506185601 | 70 | 201 | 3.5 | 6.1 | 0.00 | 0.00 | 0.00 | 48 | 1018.3 |
| 20260506185101 | 69 | 203 | 2.6 | 6.1 | 0.00 | 0.00 | 0.00 | 48 | 1018.4 |
| 20260506184832 | 70 | 229 | 2.6 | 7.0 | 0.00 | 0.00 | 0.00 | 47 | 1018.4 |
| 20260506184331 | 70 | 226 | 2.6 | 7.0 | 0.00 | 0.00 | 0.00 | 47 | 1018.5 |
| 20260506183600 | 70 | 207 | 2.6 | 7.0 | 0.00 | 0.00 | 0.00 | 48 | 1018.5 |
| 20260506183100 | 69 | 225 | 2.6 | 7.0 | 0.00 | 0.00 | 0.00 | 50 | 1018.6 |
| 20260506182600 | 69 | 229 | 2.6 | 5.2 | 0.00 | 0.00 | 0.00 | 49 | 1018.6 |
| 20260506182058 | 69 | 231 | 1.7 | 5.2 | 0.00 | 0.00 | 0.00 | 50 | 1018.6 |
| 20260506181559 | 68 | 232 | 2.6 | 5.2 | 0.00 | 0.00 | 0.00 | 50 | 1018.7 |
| 20260506181052 | 68 | 232 | 2.6 | 5.2 | 0.00 | 0.00 | 0.00 | 50 | 1018.8 |
| 20260506180553 | 68 | 232 | 2.6 | 5.2 | 0.00 | 0.00 | 0.00 | 51 | 1018.8 |
| 20260506180053 | 68 | 232 | 1.7 | 4.3 | 0.00 | 0.00 | 0.00 | 52 | 1018.7 |
| 20260506175553 | 67 | 232 | 2.6 | 4.3 | 0.00 | 0.00 | 0.00 | 52 | 1018.8 |
| 20260506175051 | 67 | 233 | 0.9 | 4.3 | 0.00 | 0.00 | 0.00 | 53 | 1018.8 |
| 20260506174551 | 66 | 233 | 0.9 | 3.5 | 0.00 | 0.00 | 0.00 | 55 | 1018.8 |
| 20260506174320 | 66 | 233 | 0.9 | 3.5 | 0.00 | 0.00 | 0.00 | 54 | 1018.7 |
| 20260506173820 | 66 | 233 | 1.7 | 6.1 | 0.00 | 0.00 | 0.00 | 54 | 1018.7 |
| 20260506173048 | 66 | 233 | 2.6 | 6.1 | 0.00 | 0.00 | 0.00 | 53 | 1018.8 |
| 20260506172545 | 66 | 233 | 1.7 | 6.1 | 0.00 | 0.00 | 0.00 | 54 | 1018.8 |
| 20260506172046 | 65 | 230 | 1.7 | 5.2 | 0.00 | 0.00 | 0.00 | 53 | 1018.8 |
| 20260506171544 | 65 | 231 | 1.7 | 5.2 | 0.00 | 0.00 | 0.00 | 54 | 1018.8 |
| 20260506171043 | 64 | 229 | 1.7 | 6.1 | 0.00 | 0.00 | 0.00 | 53 | 1018.8 |
| 20260506170543 | 64 | 229 | 1.7 | 6.1 | 0.00 | 0.00 | 0.00 | 53 | 1018.8 |
| 20260506170036 | 64 | 229 | 0.9 | 3.5 | 0.00 | 0.00 | 0.00 | 56 | 1018.8 |
| 20260506165537 | 64 | 229 | 1.7 | 4.3 | 0.00 | 0.00 | 0.00 | 58 | 1018.9 |
| 20260506165037 | 63 | 228 | 1.7 | 4.3 | 0.00 | 0.00 | 0.00 | 59 | 1018.9 |
| 20260506164535 | 63 | 229 | 1.7 | 4.3 | 0.00 | 0.00 | 0.00 | 59 | 1018.9 |
| 20260506164037 | 63 | 229 | 0.9 | 4.3 | 0.00 | 0.00 | 0.00 | 60 | 1018.9 |
| 20260506163535 | 63 | 229 | 0.9 | 3.5 | 0.00 | 0.00 | 0.00 | 61 | 1018.9 |
| 20260506163033 | 63 | 229 | 0.9 | 2.6 | 0.00 | 0.00 | 0.00 | 64 | 1018.9 |
| 20260506162533 | 63 | 230 | 0.9 | 2.6 | 0.00 | 0.00 | 0.00 | 65 | 1018.9 |
| 20260506162031 | 62 | 221 | 0.9 | 2.6 | 0.00 | 0.00 | 0.00 | 67 | 1018.9 |
| 20260506161802 | 62 | 221 | 0.9 | 2.6 | 0.00 | 0.00 | 0.00 | 68 | 1018.9 |
| 20260506161302 | 61 | 221 | 0.9 | 2.6 | 0.00 | 0.00 | 0.00 | 68 | 1018.9 |
| 20260506160800 | 61 | 221 | 1.7 | 4.3 | 0.00 | 0.00 | 0.00 | 68 | 1018.8 |
| 20260506160026 | 61 | 221 | 0.9 | 4.3 | 0.00 | 0.00 | 0.00 | 68 | 1018.9 |
| 20260506155525 | 61 | 221 | 0.0 | 3.5 | 0.00 | 0.00 | 0.00 | 69 | 1018.9 |
| 20260506155257 | 61 | 221 | 0.9 | 2.6 | 0.00 | 0.00 | 0.00 | 70 | 1018.9 |
| 20260506154526 | 60 | 221 | 0.9 | 3.5 | 0.00 | 0.00 | 0.00 | 70 | 1018.9 |
| 20260506154023 | 60 | 221 | 0.9 | 3.5 | 0.00 | 0.00 | 0.00 | 70 | 1018.9 |
| 20260506153521 | 60 | 221 | 0.9 | 3.5 | 0.00 | 0.00 | 0.00 | 70 | 1018.9 |
| 20260506153021 | 60 | 221 | 0.9 | 3.5 | 0.00 | 0.00 | 0.00 | 71 | 1018.9 |
| 20260506152519 | 60 | 221 | 0.9 | 2.6 | 0.00 | 0.00 | 0.00 | 72 | 1018.9 |
| 20260506152020 | 60 | 221 | 0.9 | 3.5 | 0.00 | 0.00 | 0.00 | 73 | 1018.9 |
| 20260506151519 | 60 | 221 | 0.9 | 3.5 | 0.00 | 0.00 | 0.00 | 74 | 1018.9 |
| 20260506151017 | 59 | 221 | 0.9 | 2.6 | 0.00 | 0.00 | 0.00 | 75 | 1019.0 |
| 20260506150515 | 59 | 221 | 0.0 | 3.5 | 0.00 | 0.00 | 0.00 | 77 | 1019.0 |
| 20260506145512 | 58 | 221 | 0.0 | 2.6 | 0.00 | 0.00 | 0.00 | 77 | 1018.9 |
| 20260506145244 | 58 | 221 | 0.9 | 2.6 | 0.00 | 0.00 | 0.00 | 78 | 1018.9 |
| 20260506144513 | 58 | 221 | 0.9 | 2.6 | 0.00 | 0.00 | 0.00 | 79 | 1018.9 |
| 20260506144010 | 57 | 221 | 0.9 | 2.6 | 0.00 | 0.00 | 0.00 | 80 | 1018.9 |
| 20260506143509 | 57 | 221 | 0.0 | 2.6 | 0.00 | 0.00 | 0.00 | 80 | 1018.9 |
| 20260506143006 | 56 | 221 | 0.0 | 1.7 | 0.00 | 0.00 | 0.00 | 81 | 1018.9 |
| 20260506142506 | 56 | 221 | 0.9 | 2.6 | 0.00 | 0.00 | 0.00 | 81 | 1018.9 |
| 20260506142007 | 56 | 221 | 0.0 | 2.6 | 0.00 | 0.00 | 0.00 | 82 | 1018.9 |
| 20260506141507 | 55 | 221 | 0.0 | 0.0 | 0.00 | 0.00 | 0.00 | 82 | 1018.8 |
| 20260506141001 | 55 | 221 | 0.0 | 0.0 | 0.00 | 0.00 | 0.00 | 83 | 1018.9 |
| 20260506140458 | 55 | 221 | 0.0 | 0.0 | 0.00 | 0.00 | 0.00 | 84 | 1018.8 |
| 20260506135959 | 54 | 221 | 0.0 | 0.0 | 0.00 | 0.00 | 0.00 | 83 | 1018.8 |
| 20260506135452 | 54 | 221 | 0.0 | 0.0 | 0.00 | 0.00 | 0.00 | 84 | 1018.8 |
| 20260506134953 | 54 | 221 | 0.0 | 0.0 | 0.00 | 0.00 | 0.00 | 84 | 1018.8 |
| 20260506134724 | 53 | 221 | 0.0 | 0.0 | 0.00 | 0.00 | 0.00 | 85 | 1018.7 |
| 20260506133953 | 53 | 221 | 0.0 | 0.0 | 0.00 | 0.00 | 0.00 | 85 | 1018.7 |
| 20260506133452 | 53 | 223 | 0.0 | 0.0 | 0.00 | 0.00 | 0.00 | 85 | 1018.6 |
| 20260506132953 | 52 | 223 | 0.0 | 0.0 | 0.00 | 0.00 | 0.00 | 85 | 1018.5 |
| 20260506132722 | 52 | 223 | 0.0 | 0.0 | 0.00 | 0.00 | 0.00 | 85 | 1018.5 |
| 20260506131949 | 52 | 223 | 0.0 | 0.0 | 0.00 | 0.00 | 0.00 | 85 | 1018.4 |
| 20260506131449 | 52 | 223 | 0.0 | 0.0 | 0.00 | 0.00 | 0.00 | 85 | 1018.3 |
| 20260506130944 | 52 | 223 | 0.0 | 0.0 | 0.00 | 0.00 | 0.00 | 85 | 1018.3 |
| 20260506130445 | 52 | 223 | 0.0 | 0.0 | 0.00 | 0.00 | 0.00 | 85 | 1018.2 |
| 20260506125946 | 52 | 223 | 0.0 | 0.0 | 0.00 | 0.00 | 0.00 | 85 | 1018.2 |
| 20260506125443 | 52 | 223 | 0.0 | 0.0 | 0.00 | 0.00 | 0.00 | 85 | 1018.2 |
| 20260506124940 | 51 | 223 | 0.0 | 0.0 | 0.00 | 0.00 | 0.00 | 85 | 1018.1 |
| 20260506124441 | 51 | 223 | 0.0 | 0.0 | 0.00 | 0.00 | 0.00 | 85 | 1018.0 |
| 20260506123935 | 51 | 223 | 0.0 | 0.0 | 0.00 | 0.00 | 0.00 | 84 | 1018.0 |
| 20260506123436 | 51 | 223 | 0.0 | 0.0 | 0.00 | 0.00 | 0.00 | 84 | 1018.0 |
| 20260506122934 | 51 | 223 | 0.0 | 0.0 | 0.00 | 0.00 | 0.00 | 84 | 1018.0 |
| 20260506122435 | 51 | 223 | 0.0 | 0.0 | 0.00 | 0.00 | 0.00 | 84 | 1018.0 |
| 20260506121934 | 51 | 223 | 0.0 | 0.0 | 0.00 | 0.00 | 0.00 | 84 | 1017.9 |
| 20260506121435 | 51 | 223 | 0.0 | 0.0 | 0.00 | 0.00 | 0.00 | 84 | 1017.9 |
| 20260506120935 | 51 | 223 | 0.0 | 0.0 | 0.00 | 0.00 | 0.00 | 84 | 1017.9 |
| 20260506120434 | 51 | 223 | 0.0 | 0.0 | 0.00 | 0.00 | 0.00 | 84 | 1017.8 |
| 20260506115934 | 51 | 223 | 0.0 | 0.0 | 0.00 | 0.00 | 0.00 | 84 | 1017.9 |
| 20260506115435 | 51 | 223 | 0.0 | 0.0 | 0.00 | 0.00 | 0.00 | 84 | 1017.9 |
| 20260506114934 | 51 | 223 | 0.0 | 0.0 | 0.00 | 0.00 | 0.00 | 84 | 1017.8 |
| 20260506114435 | 51 | 223 | 0.0 | 0.0 | 0.00 | 0.01 | 0.00 | 84 | 1017.8 |
| 20260506113934 | 51 | 223 | 0.0 | 0.0 | 0.00 | 0.01 | 0.00 | 84 | 1017.9 |
| 20260506113435 | 51 | 223 | 0.0 | 0.0 | 0.00 | 0.01 | 0.00 | 84 | 1017.9 |
| 20260506112934 | 51 | 223 | 0.0 | 0.0 | 0.00 | 0.01 | 0.00 | 83 | 1017.8 |
| 20260506112434 | 51 | 223 | 0.0 | 0.0 | 0.00 | 0.01 | 0.00 | 83 | 1017.8 |
| 20260506111434 | 51 | 223 | 0.0 | 0.0 | 0.00 | 0.02 | 0.00 | 84 | 1017.8 |
| 20260506110935 | 51 | 223 | 0.0 | 0.0 | 0.00 | 0.03 | 0.00 | 83 | 1017.8 |
| 20260506110435 | 51 | 223 | 0.0 | 0.0 | 0.00 | 0.04 | 0.00 | 83 | 1017.8 |
| 20260506105934 | 51 | 223 | 0.0 | 0.0 | 0.00 | 0.05 | 0.00 | 83 | 1017.8 |
| 20260506105433 | 51 | 223 | 0.0 | 0.0 | 0.00 | 0.07 | 0.00 | 82 | 1017.8 |
| 20260506104934 | 51 | 223 | 0.0 | 0.0 | 0.00 | 0.11 | 0.00 | 82 | 1017.8 |
| 20260506104434 | 52 | 223 | 0.0 | 0.0 | 0.00 | 0.12 | 0.00 | 82 | 1017.8 |
| 20260506103934 | 52 | 223 | 0.0 | 0.0 | 0.00 | 0.13 | 0.00 | 82 | 1017.8 |
| 20260506102932 | 52 | 223 | 0.0 | 0.0 | 0.00 | 0.13 | 0.00 | 82 | 1017.8 |
| 20260506102432 | 52 | 223 | 0.0 | 0.0 | 0.00 | 0.14 | 0.00 | 82 | 1017.8 |
| 20260506102203 | 52 | 223 | 0.0 | 0.9 | 0.00 | 0.14 | 0.00 | 81 | 1017.8 |
| 20260506101433 | 52 | 223 | 0.0 | 0.9 | 0.00 | 0.14 | 0.00 | 81 | 1017.8 |
| 20260506100930 | 53 | 223 | 0.0 | 0.0 | 0.00 | 0.14 | 0.00 | 81 | 1017.8 |
| 20260506100428 | 53 | 223 | 0.0 | 0.0 | 0.00 | 0.14 | 0.00 | 81 | 1017.9 |
| 20260506095927 | 53 | 223 | 0.0 | 0.0 | 0.00 | 0.14 | 0.00 | 81 | 1017.8 |
| 20260506095425 | 53 | 223 | 0.0 | 0.0 | 0.00 | 0.15 | 0.00 | 81 | 1017.8 |
| 20260506094924 | 54 | 223 | 0.0 | 0.0 | 0.00 | 0.15 | 0.00 | 81 | 1017.8 |
| 20260506094423 | 54 | 223 | 0.0 | 0.0 | 0.00 | 0.15 | 0.00 | 81 | 1017.8 |
| 20260506093920 | 54 | 223 | 0.0 | 0.0 | 0.00 | 0.15 | 0.00 | 81 | 1017.8 |
| 20260506093419 | 55 | 223 | 0.0 | 0.9 | 0.00 | 0.15 | 0.00 | 81 | 1017.8 |
| 20260506092919 | 55 | 223 | 0.0 | 0.9 | 0.00 | 0.15 | 0.00 | 81 | 1017.8 |
| 20260506092417 | 55 | 223 | 0.0 | 1.7 | 0.00 | 0.15 | 0.00 | 80 | 1017.8 |
| 20260506091915 | 55 | 223 | 0.0 | 1.7 | 0.00 | 0.15 | 0.00 | 80 | 1017.9 |
| 20260506091648 | 55 | 223 | 0.0 | 1.7 | 0.00 | 0.15 | 0.00 | 80 | 1017.9 |
| 20260506090911 | 55 | 223 | 0.0 | 1.7 | 0.00 | 0.15 | 0.00 | 80 | 1017.8 |
| 20260506090411 | 55 | 223 | 0.9 | 2.6 | 0.00 | 0.15 | 0.00 | 79 | 1017.8 |
| 20260506085908 | 55 | 223 | 0.9 | 2.6 | 0.00 | 0.15 | 0.00 | 79 | 1017.9 |
| 20260506085409 | 55 | 223 | 0.9 | 3.5 | 0.00 | 0.15 | 0.00 | 79 | 1017.9 |
| 20260506084909 | 55 | 223 | 0.9 | 3.5 | 0.00 | 0.15 | 0.00 | 79 | 1017.9 |
| 20260506084409 | 55 | 223 | 0.9 | 2.6 | 0.00 | 0.15 | 0.00 | 78 | 1017.9 |
| 20260506083903 | 55 | 223 | 0.9 | 2.6 | 0.00 | 0.15 | 0.00 | 78 | 1018.0 |
| 20260506083405 | 55 | 223 | 0.9 | 2.6 | 0.00 | 0.15 | 0.00 | 78 | 1018.1 |
| 20260506082905 | 55 | 223 | 0.9 | 3.5 | 0.00 | 0.15 | 0.00 | 78 | 1018.1 |
| 20260506082403 | 56 | 223 | 0.9 | 3.5 | 0.00 | 0.15 | 0.00 | 78 | 1018.2 |
| 20260506081900 | 56 | 223 | 0.9 | 2.6 | 0.00 | 0.15 | 0.00 | 78 | 1018.2 |
| 20260506081400 | 56 | 223 | 0.9 | 2.6 | 0.00 | 0.15 | 0.00 | 77 | 1018.2 |
| 20260506080901 | 56 | 223 | 0.9 | 3.5 | 0.00 | 0.15 | 0.00 | 77 | 1018.1 |
| 20260506080402 | 56 | 223 | 0.9 | 3.5 | 0.00 | 0.15 | 0.00 | 77 | 1018.2 |
| 20260506072854 | 56 | 223 | 0.0 | 2.6 | 0.00 | 0.15 | 0.00 | 75 | 1018.2 |
| 20260506072624 | 56 | 223 | 0.0 | 2.6 | 0.00 | 0.15 | 0.00 | 74 | 1018.2 |
| 20260506071851 | 56 | 223 | 0.0 | 1.7 | 0.00 | 0.15 | 0.00 | 74 | 1018.3 |
| 20260506071350 | 56 | 223 | 0.0 | 2.6 | 0.00 | 0.15 | 0.00 | 74 | 1018.2 |
| 20260506070850 | 57 | 223 | 0.9 | 5.2 | 0.00 | 0.15 | 0.00 | 74 | 1018.1 |
| 20260506070349 | 57 | 223 | 1.7 | 5.2 | 0.00 | 0.15 | 0.00 | 73 | 1018.2 |
| 20260506062340 | 57 | 223 | 0.9 | 4.3 | 0.00 | 0.15 | 0.15 | 73 | 1017.8 |
| 20260506061841 | 57 | 223 | 1.7 | 4.3 | 0.00 | 0.15 | 0.15 | 73 | 1017.7 |
| 20260506061341 | 57 | 223 | 1.7 | 4.3 | 0.00 | 0.15 | 0.15 | 73 | 1017.5 |
| 20260506060842 | 57 | 223 | 1.7 | 3.5 | 0.00 | 0.15 | 0.15 | 73 | 1017.5 |
| 20260506060342 | 57 | 223 | 1.7 | 4.3 | 0.00 | 0.15 | 0.15 | 72 | 1017.5 |
| 20260506051340 | 58 | 222 | 2.6 | 4.3 | 0.00 | 0.15 | 0.15 | 70 | 1017.2 |
| 20260506050841 | 58 | 222 | 2.6 | 5.2 | 0.00 | 0.15 | 0.15 | 70 | 1017.2 |
| 20260506050342 | 58 | 222 | 2.6 | 5.2 | 0.00 | 0.15 | 0.15 | 69 | 1017.2 |
| 20260506044839 | 59 | 221 | 2.6 | 5.2 | 0.00 | 0.15 | 0.15 | 68 | 1016.9 |
| 20260506044338 | 59 | 221 | 3.5 | 7.0 | 0.00 | 0.15 | 0.15 | 68 | 1016.8 |
| 20260506043839 | 59 | 222 | 3.5 | 7.0 | 0.00 | 0.15 | 0.15 | 68 | 1016.6 |
| 20260506043339 | 59 | 222 | 3.5 | 6.1 | 0.00 | 0.15 | 0.15 | 67 | 1016.6 |
| 20260506042839 | 59 | 222 | 3.5 | 6.1 | 0.00 | 0.15 | 0.15 | 67 | 1016.5 |
| 20260506042340 | 59 | 222 | 3.5 | 7.0 | 0.00 | 0.15 | 0.15 | 66 | 1016.4 |
| 20260506041840 | 59 | 222 | 3.5 | 7.8 | 0.00 | 0.15 | 0.15 | 65 | 1016.3 |
| 20260506041340 | 60 | 222 | 3.5 | 7.8 | 0.00 | 0.15 | 0.15 | 64 | 1016.4 |
| 20260506041110 | 60 | 223 | 3.5 | 6.1 | 0.00 | 0.15 | 0.15 | 63 | 1016.2 |
| 20260506040340 | 60 | 223 | 4.3 | 7.0 | 0.00 | 0.15 | 0.15 | 63 | 1016.2 |
| 20260506040109 | 60 | 223 | 3.5 | 7.0 | 0.00 | 0.15 | 0.15 | 62 | 1016.2 |
| 20260506035340 | 60 | 224 | 2.6 | 7.0 | 0.00 | 0.15 | 0.15 | 61 | 1016.1 |
| 20260506034836 | 60 | 228 | 3.5 | 5.2 | 0.00 | 0.15 | 0.15 | 60 | 1016.0 |
| 20260506034332 | 60 | 228 | 3.5 | 5.2 | 0.00 | 0.15 | 0.15 | 60 | 1015.9 |
| 20260506034101 | 60 | 228 | 3.5 | 5.2 | 0.00 | 0.15 | 0.15 | 60 | 1015.7 |
| 20260506033331 | 61 | 229 | 2.6 | 5.2 | 0.00 | 0.15 | 0.15 | 59 | 1015.7 |
| 20260506032829 | 61 | 229 | 3.5 | 6.1 | 0.00 | 0.15 | 0.15 | 59 | 1015.6 |
| 20260506032328 | 61 | 229 | 3.5 | 7.0 | 0.00 | 0.15 | 0.15 | 58 | 1015.5 |
| 20260506031826 | 61 | 229 | 4.3 | 7.0 | 0.00 | 0.15 | 0.15 | 58 | 1015.4 |
| 20260506031325 | 61 | 230 | 4.3 | 7.0 | 0.00 | 0.15 | 0.15 | 57 | 1015.3 |
| 20260506030819 | 62 | 232 | 3.5 | 7.0 | 0.00 | 0.15 | 0.15 | 57 | 1015.3 |
| 20260506030319 | 62 | 233 | 3.5 | 7.0 | 0.00 | 0.15 | 0.15 | 57 | 1015.3 |